TimeCST,TemperatureF,Dew PointF,Humidity,Sea Level PressureIn,VisibilityMPH,Wind Direction,Wind SpeedMPH,Gust SpeedMPH,PrecipitationIn,Events,Conditions,WindDirDegrees,DateUTC
12:53 AM,32.0,28.0,85,29.83,10.0,South,5.8,-,N/A,,Clear,180,2013-01-19 06:53:00
1:53 AM,32.0,28.9,88,29.84,10.0,SSW,4.6,-,N/A,,Clear,200,2013-01-19 07:53:00
2:53 AM,34.0,28.9,82,29.83,10.0,SSW,8.1,-,N/A,,Mostly Cloudy,200,2013-01-19 08:53:00
3:53 AM,34.0,30.0,85,29.80,10.0,South,5.8,-,N/A,,Overcast,180,2013-01-19 09:53:00
4:53 AM,34.0,30.0,85,29.80,10.0,South,8.1,-,N/A,,Overcast,180,2013-01-19 10:53:00
5:53 AM,34.0,30.0,85,29.79,10.0,South,4.6,-,N/A,,Overcast,180,2013-01-19 11:53:00
6:53 AM,34.0,30.0,85,29.77,10.0,SSE,4.6,-,N/A,,Mostly Cloudy,150,2013-01-19 12:53:00
7:53 AM,34.0,30.0,85,29.75,10.0,South,8.1,-,N/A,,Overcast,180,2013-01-19 13:53:00
8:53 AM,35.1,30.0,82,29.75,10.0,SSE,6.9,-,N/A,,Clear,160,2013-01-19 14:53:00
9:53 AM,39.0,30.9,73,29.75,10.0,South,8.1,-,N/A,,Clear,190,2013-01-19 15:53:00
10:53 AM,42.1,30.0,62,29.75,10.0,SW,6.9,-,N/A,,Clear,230,2013-01-19 16:53:00
11:53 AM,46.0,30.0,54,29.72,10.0,West,6.9,-,N/A,,Clear,260,2013-01-19 17:53:00
12:53 PM,48.0,30.0,50,29.70,10.0,West,11.5,-,N/A,,Scattered Clouds,270,2013-01-19 18:53:00
1:53 PM,46.0,30.0,54,29.70,10.0,West,15.0,-,N/A,,Mostly Cloudy,270,2013-01-19 19:53:00
2:53 PM,45.0,30.0,56,29.72,10.0,WNW,13.8,20.7,N/A,,Scattered Clouds,290,2013-01-19 20:53:00
3:53 PM,42.1,30.0,62,29.75,10.0,WNW,19.6,27.6,N/A,,Overcast,300,2013-01-19 21:53:00
4:53 PM,39.0,23.0,53,29.76,10.0,West,27.6,46.0,N/A,,Mostly Cloudy,270,2013-01-19 22:53:00
5:53 PM,32.0,14.0,48,29.83,10.0,West,21.9,42.6,N/A,,Clear,280,2013-01-19 23:53:00
6:53 PM,21.9,6.1,51,29.93,10.0,NW,26.5,40.3,N/A,,Partly Cloudy,310,2013-01-20 00:53:00
7:53 PM,18.0,3.0,52,29.99,10.0,WNW,27.6,39.1,N/A,,Overcast,300,2013-01-20 01:53:00
8:53 PM,15.1,1.0,54,30.05,10.0,WNW,24.2,43.7,N/A,,Mostly Cloudy,300,2013-01-20 02:53:00
9:53 PM,12.9,1.0,59,30.08,10.0,NW,33.4,40.3,N/A,,Overcast,310,2013-01-20 03:53:00
10:21 PM,10.4,3.2,73,30.07,4.0,NW,21.9,34.5,0.00,Snow,Light Snow,320,2013-01-20 04:21:00
10:53 PM,10.0,-2.9,56,30.14,10.0,NW,25.3,36.8,0.00,,Overcast,310,2013-01-20 04:53:00
11:19 PM,8.6,-4.0,57,30.13,10.0,NW,21.9,31.1,N/A,,Mostly Cloudy,310,2013-01-20 05:19:00
11:42 PM,6.8,-4.0,61,30.13,10.0,NW,24.2,33.4,N/A,,Mostly Cloudy,310,2013-01-20 05:42:00